Location: Puketoi
(40.5833°S, 176.0167°E)
Time: 00:27:17
(UTC+00:00)

COSMOS 2455 - Pass Details

Date: 03 October 2023
Orbit: 902 x 907 km, 67.1° (Epoch: 03 December)

Event Time Altitude Azimuth Distance (km) Brightness Sun altitude
Exits shadow 09:37:04 10° 145° (SE) 2,588 5.3 -34.1°
Drops below altitude 10° 09:37:14 10° 145° (SE) 2,650 5.3 -34.1°
Sets 09:39:41 0° 148° (SSE) 3,561 6.1 -34.4°
